| time (UTC) | temp C | wind direction | speed KPH | gust KPH | rain 1hr cm | rain 24hr cm | rain mn cm | humidity % | barometer mb |
| 20260505083741 | 10 | 296 | 0.0 | 0.0 | 0.00 | 0.00 | 0.00 | 91 | 1009.9 |
| 20260505082741 | 10 | 296 | 0.0 | 0.0 | 0.00 | 0.00 | 0.00 | 91 | 1010.1 |
| 20260505082238 | 11 | 296 | 0.0 | 0.0 | 0.00 | 0.00 | 0.00 | 91 | 1010.1 |
| 20260505081229 | 11 | 296 | 0.0 | 0.0 | 0.00 | 0.00 | 0.00 | 91 | 1010.1 |
| 20260505080725 | 11 | 296 | 0.0 | 0.0 | 0.00 | 0.00 | 0.00 | 91 | 1010.1 |
| 20260505080227 | 11 | 296 | 0.0 | 0.0 | 0.00 | 0.00 | 0.00 | 91 | 1010.1 |
| 20260505075721 | 11 | 296 | 0.0 | 0.0 | 0.00 | 0.00 | 0.00 | 91 | 1010.1 |
| 20260505075216 | 11 | 296 | 0.0 | 0.0 | 0.00 | 0.00 | 0.00 | 91 | 1010.1 |
| 20260505074717 | 11 | 296 | 0.0 | 0.0 | 0.00 | 0.00 | 0.00 | 90 | 1010.1 |
| 20260505074216 | 11 | 296 | 0.0 | 0.0 | 0.00 | 0.00 | 0.00 | 90 | 1010.1 |
| 20260505073712 | 11 | 296 | 0.0 | 0.0 | 0.00 | 0.00 | 0.00 | 90 | 1010.1 |
| 20260505073213 | 11 | 296 | 0.0 | 0.0 | 0.00 | 0.00 | 0.00 | 90 | 1010.1 |
| 20260505072705 | 11 | 296 | 0.0 | 0.0 | 0.00 | 0.00 | 0.00 | 90 | 1010.1 |
| 20260505072204 | 11 | 296 | 0.0 | 0.0 | 0.00 | 0.00 | 0.00 | 89 | 1010.1 |
| 20260505071701 | 11 | 296 | 0.0 | 0.0 | 0.00 | 0.00 | 0.00 | 89 | 1010.1 |
| 20260505071200 | 11 | 296 | 0.0 | 0.0 | 0.00 | 0.00 | 0.00 | 89 | 1010.1 |
| 20260505070657 | 11 | 296 | 0.0 | 0.0 | 0.00 | 0.00 | 0.00 | 89 | 1010.1 |
| 20260505065657 | 11 | 296 | 0.0 | 0.0 | 0.00 | 0.00 | 0.00 | 89 | 1010.0 |
| 20260505065150 | 11 | 296 | 0.0 | 1.6 | 0.00 | 0.00 | 0.00 | 88 | 1010.0 |
| 20260505064652 | 11 | 296 | 0.0 | 1.6 | 0.00 | 0.00 | 0.00 | 88 | 1010.0 |
| 20260505064150 | 11 | 296 | 0.0 | 0.0 | 0.00 | 0.00 | 0.00 | 88 | 1010.0 |
| 20260505063646 | 11 | 296 | 0.0 | 0.0 | 0.00 | 0.00 | 0.00 | 88 | 1010.0 |
| 20260505063144 | 11 | 296 | 0.0 | 0.0 | 0.00 | 0.00 | 0.00 | 88 | 1010.0 |
| 20260505062641 | 11 | 296 | 0.0 | 0.0 | 0.00 | 0.00 | 0.00 | 88 | 1010.0 |
| 20260505061640 | 11 | 296 | 0.0 | 1.6 | 0.00 | 0.00 | 0.00 | 88 | 1010.0 |
| 20260505061135 | 11 | 296 | 0.0 | 1.6 | 0.00 | 0.00 | 0.00 | 88 | 1010.0 |
| 20260505060632 | 11 | 296 | 0.0 | 0.0 | 0.00 | 0.00 | 0.00 | 88 | 1010.0 |
| 20260505060127 | 11 | 296 | 0.0 | 0.0 | 0.00 | 0.00 | 0.00 | 87 | 1010.0 |
| 20260505055622 | 11 | 296 | 0.0 | 0.0 | 0.00 | 0.00 | 0.00 | 87 | 1010.0 |
| 20260505055120 | 11 | 296 | 0.0 | 0.0 | 0.00 | 0.00 | 0.00 | 86 | 1010.0 |
| 20260505054620 | 11 | 296 | 0.0 | 0.0 | 0.00 | 0.00 | 0.00 | 86 | 1010.0 |
| 20260505053620 | 11 | 296 | 0.0 | 0.0 | 0.00 | 0.00 | 0.00 | 86 | 1010.1 |
| 20260505053118 | 12 | 296 | 0.0 | 0.0 | 0.00 | 0.00 | 0.00 | 85 | 1010.1 |
| 20260505052616 | 12 | 296 | 0.0 | 0.0 | 0.00 | 0.00 | 0.00 | 85 | 1010.1 |
| 20260505052114 | 12 | 296 | 0.0 | 0.0 | 0.00 | 0.00 | 0.00 | 85 | 1010.1 |
| 20260505051608 | 12 | 296 | 0.0 | 0.0 | 0.00 | 0.00 | 0.00 | 85 | 1010.1 |
| 20260505051106 | 12 | 296 | 0.0 | 0.0 | 0.00 | 0.00 | 0.00 | 85 | 1010.1 |
| 20260505050600 | 12 | 296 | 0.0 | 0.0 | 0.00 | 0.00 | 0.00 | 86 | 1010.1 |
| 20260505041552 | 11 | 296 | 0.0 | 0.0 | 0.00 | 0.00 | 0.00 | 84 | 1010.0 |
| 20260505041048 | 12 | 296 | 0.0 | 0.0 | 0.00 | 0.00 | 0.00 | 84 | 1009.7 |
| 20260505040544 | 12 | 296 | 0.0 | 0.0 | 0.00 | 0.00 | 0.00 | 84 | 1009.7 |
| 20260505040041 | 12 | 296 | 0.0 | 0.0 | 0.00 | 0.00 | 0.00 | 84 | 1009.7 |
| 20260505035539 | 12 | 296 | 0.0 | 1.6 | 0.00 | 0.00 | 0.00 | 84 | 1009.6 |
| 20260505035036 | 12 | 296 | 0.0 | 1.6 | 0.00 | 0.00 | 0.00 | 84 | 1009.6 |
| 20260505034535 | 12 | 296 | 0.0 | 1.6 | 0.00 | 0.00 | 0.00 | 84 | 1009.6 |
| 20260505034027 | 12 | 296 | 0.0 | 3.2 | 0.00 | 0.00 | 0.00 | 84 | 1009.5 |
| 20260505033526 | 12 | 296 | 0.0 | 3.2 | 0.00 | 0.00 | 0.00 | 83 | 1009.5 |
| 20260505033024 | 12 | 296 | 0.0 | 4.8 | 0.00 | 0.00 | 0.00 | 83 | 1009.5 |
| 20260505032527 | 12 | 296 | 1.6 | 4.8 | 0.00 | 0.00 | 0.00 | 83 | 1009.5 |
| 20260505032019 | 12 | 296 | 1.6 | 4.8 | 0.00 | 0.00 | 0.00 | 82 | 1009.5 |
| 20260505031012 | 12 | 296 | 1.6 | 4.8 | 0.00 | 0.00 | 0.00 | 82 | 1009.4 |
| 20260505030513 | 13 | 296 | 1.6 | 6.4 | 0.00 | 0.00 | 0.00 | 81 | 1009.4 |
| 20260505025513 | 13 | 296 | 3.2 | 9.7 | 0.00 | 0.00 | 0.00 | 81 | 1009.4 |
| 20260505025006 | 13 | 290 | 3.2 | 9.7 | 0.00 | 0.00 | 0.00 | 81 | 1009.4 |
| 20260505024505 | 13 | 304 | 3.2 | 8.0 | 0.00 | 0.00 | 0.00 | 81 | 1009.4 |
| 20260505024006 | 13 | 264 | 3.2 | 6.4 | 0.00 | 0.00 | 0.00 | 80 | 1009.4 |
| 20260505023506 | 13 | 264 | 3.2 | 6.4 | 0.00 | 0.00 | 0.00 | 79 | 1009.4 |
| 20260505023003 | 14 | 263 | 3.2 | 9.7 | 0.00 | 0.00 | 0.00 | 78 | 1009.4 |
| 20260505022457 | 14 | 263 | 3.2 | 9.7 | 0.00 | 0.00 | 0.00 | 78 | 1009.5 |
| 20260505021956 | 14 | 317 | 3.2 | 8.0 | 0.00 | 0.00 | 0.00 | 78 | 1009.5 |
| 20260505021452 | 14 | 32 | 3.2 | 6.4 | 0.00 | 0.00 | 0.00 | 77 | 1009.5 |
| 20260505020952 | 15 | 229 | 3.2 | 12.9 | 0.00 | 0.00 | 0.00 | 77 | 1009.5 |
| 20260505015952 | 15 | 286 | 4.8 | 11.3 | 0.00 | 0.00 | 0.00 | 76 | 1009.5 |
| 20260505015446 | 15 | 326 | 4.8 | 9.7 | 0.00 | 0.00 | 0.00 | 75 | 1009.6 |
| 20260505014944 | 15 | 276 | 4.8 | 14.5 | 0.00 | 0.00 | 0.00 | 74 | 1009.6 |
| 20260505013944 | 16 | 296 | 6.4 | 16.1 | 0.00 | 0.00 | 0.00 | 72 | 1009.5 |
| 20260505012942 | 16 | 303 | 6.4 | 12.9 | 0.00 | 0.00 | 0.00 | 70 | 1009.5 |
| 20260505012441 | 16 | 318 | 6.4 | 12.9 | 0.00 | 0.00 | 0.00 | 71 | 1009.5 |
| 20260505010436 | 17 | 306 | 9.7 | 14.5 | 0.00 | 0.00 | 0.00 | 67 | 1009.3 |
| 20260505005935 | 17 | 309 | 8.0 | 14.5 | 0.00 | 0.00 | 0.00 | 67 | 1009.3 |
| 20260505005433 | 18 | 315 | 6.4 | 12.9 | 0.00 | 0.00 | 0.00 | 63 | 1009.3 |
| 20260505004433 | 18 | 311 | 4.8 | 12.9 | 0.00 | 0.00 | 0.00 | 63 | 1009.3 |
| 20260505003430 | 18 | 327 | 8.0 | 17.7 | 0.00 | 0.00 | 0.00 | 62 | 1009.3 |
| 20260505002931 | 18 | 299 | 6.4 | 17.7 | 0.00 | 0.00 | 0.00 | 59 | 1009.3 |
| 20260505002425 | 18 | 319 | 6.4 | 12.9 | 0.00 | 0.00 | 0.00 | 60 | 1009.5 |
| 20260505001924 | 18 | 344 | 8.0 | 20.9 | 0.00 | 0.00 | 0.00 | 63 | 1009.5 |
| 20260505001423 | 18 | 321 | 9.7 | 20.9 | 0.00 | 0.00 | 0.00 | 63 | 1009.5 |
| 20260505000922 | 18 | 321 | 8.0 | 19.3 | 0.00 | 0.00 | 0.00 | 62 | 1009.7 |
| 20260505000424 | 18 | 305 | 8.0 | 16.1 | 0.00 | 0.00 | 0.00 | 61 | 1009.7 |
| 20260504235921 | 18 | 328 | 8.0 | 16.1 | 0.00 | 0.00 | 0.00 | 60 | 1009.7 |
| 20260504234416 | 18 | 290 | 6.4 | 14.5 | 0.00 | 0.00 | 0.00 | 63 | 1009.7 |
| 20260504233921 | 18 | 308 | 6.4 | 14.5 | 0.00 | 0.00 | 0.00 | 64 | 1009.7 |
| 20260504233414 | 18 | 337 | 6.4 | 17.7 | 0.00 | 0.00 | 0.00 | 65 | 1009.7 |
| 20260504232913 | 18 | 304 | 8.0 | 17.7 | 0.00 | 0.00 | 0.00 | 67 | 1009.7 |
| 20260504231911 | 17 | 303 | 6.4 | 17.7 | 0.00 | 0.00 | 0.00 | 67 | 1009.8 |
| 20260504231409 | 17 | 302 | 6.4 | 17.7 | 0.00 | 0.00 | 0.00 | 66 | 1009.7 |
| 20260504230907 | 16 | 311 | 6.4 | 19.3 | 0.00 | 0.00 | 0.00 | 68 | 1009.5 |
| 20260504230405 | 16 | 294 | 6.4 | 19.3 | 0.00 | 0.00 | 0.00 | 67 | 1009.5 |
| 20260504225402 | 17 | 318 | 6.4 | 16.1 | 0.00 | 0.00 | 0.00 | 66 | 1009.6 |
| 20260504224859 | 17 | 287 | 6.4 | 16.1 | 0.00 | 0.00 | 0.00 | 65 | 1009.6 |
| 20260504224400 | 17 | 322 | 6.4 | 14.5 | 0.00 | 0.00 | 0.00 | 63 | 1009.8 |
| 20260504223856 | 18 | 277 | 6.4 | 14.5 | 0.00 | 0.00 | 0.00 | 63 | 1009.8 |
| 20260504223356 | 18 | 355 | 8.0 | 19.3 | 0.00 | 0.00 | 0.00 | 63 | 1009.8 |
| 20260504222854 | 18 | 319 | 6.4 | 19.3 | 0.00 | 0.00 | 0.00 | 62 | 1009.9 |
| 20260504222353 | 18 | 323 | 8.0 | 19.3 | 0.00 | 0.00 | 0.00 | 62 | 1009.9 |
| 20260504221853 | 18 | 288 | 8.0 | 19.3 | 0.00 | 0.00 | 0.00 | 63 | 1009.9 |
| 20260504221353 | 18 | 325 | 8.0 | 20.9 | 0.00 | 0.00 | 0.00 | 63 | 1010.0 |
| 20260504220851 | 19 | 315 | 8.0 | 20.9 | 0.00 | 0.00 | 0.00 | 63 | 1010.0 |
| 20260504220352 | 19 | 325 | 8.0 | 14.5 | 0.00 | 0.00 | 0.00 | 63 | 1010.0 |
| 20260504215850 | 19 | 339 | 6.4 | 16.1 | 0.00 | 0.00 | 0.00 | 61 | 1010.1 |
| 20260504215349 | 20 | 344 | 6.4 | 16.1 | 0.00 | 0.00 | 0.00 | 60 | 1010.1 |
| 20260504214854 | 20 | 338 | 8.0 | 16.1 | 0.00 | 0.00 | 0.00 | 60 | 1010.1 |
| 20260504214350 | 20 | 328 | 8.0 | 16.1 | 0.00 | 0.00 | 0.00 | 59 | 1010.3 |
| 20260504213847 | 20 | 348 | 8.0 | 16.1 | 0.00 | 0.00 | 0.00 | 59 | 1010.3 |
| 20260504213346 | 20 | 334 | 8.0 | 16.1 | 0.00 | 0.00 | 0.00 | 58 | 1010.3 |
| 20260504212848 | 20 | 328 | 6.4 | 16.1 | 0.00 | 0.00 | 0.00 | 58 | 1010.3 |
| 20260504212347 | 20 | 336 | 8.0 | 16.1 | 0.00 | 0.00 | 0.00 | 58 | 1010.3 |
| 20260504211846 | 19 | 319 | 8.0 | 17.7 | 0.00 | 0.00 | 0.00 | 60 | 1010.3 |
| 20260504211348 | 18 | 279 | 8.0 | 17.7 | 0.00 | 0.00 | 0.00 | 61 | 1010.3 |
| 20260504210844 | 18 | 327 | 6.4 | 16.1 | 0.00 | 0.00 | 0.00 | 62 | 1010.3 |
| 20260504205836 | 17 | 311 | 6.4 | 11.3 | 0.00 | 0.00 | 0.00 | 62 | 1010.2 |
| 20260504205342 | 17 | 266 | 6.4 | 14.5 | 0.00 | 0.00 | 0.00 | 61 | 1010.2 |
| 20260504204840 | 18 | 264 | 6.4 | 14.5 | 0.00 | 0.00 | 0.00 | 60 | 1010.3 |
| 20260504204334 | 18 | 316 | 6.4 | 14.5 | 0.00 | 0.00 | 0.00 | 59 | 1010.2 |
| 20260504203831 | 18 | 312 | 6.4 | 14.5 | 0.00 | 0.00 | 0.00 | 59 | 1010.2 |
| 20260504203330 | 18 | 312 | 6.4 | 20.9 | 0.00 | 0.00 | 0.00 | 60 | 1010.2 |
| 20260504202830 | 18 | 262 | 6.4 | 20.9 | 0.00 | 0.00 | 0.00 | 59 | 1010.2 |
| 20260504201829 | 17 | 313 | 4.8 | 11.3 | 0.00 | 0.00 | 0.00 | 61 | 1010.1 |
| 20260504201329 | 17 | 337 | 4.8 | 11.3 | 0.00 | 0.00 | 0.00 | 61 | 1010.2 |
| 20260504200828 | 17 | 309 | 4.8 | 12.9 | 0.00 | 0.00 | 0.00 | 61 | 1010.2 |
| 20260504195322 | 17 | 263 | 3.2 | 14.5 | 0.00 | 0.00 | 0.00 | 64 | 1010.1 |
| 20260504194819 | 17 | 290 | 4.8 | 14.5 | 0.00 | 0.00 | 0.00 | 65 | 1010.1 |
| 20260504194318 | 17 | 281 | 6.4 | 14.5 | 0.00 | 0.00 | 0.00 | 64 | 1010.1 |
| 20260504193816 | 17 | 299 | 4.8 | 9.7 | 0.00 | 0.00 | 0.00 | 65 | 1010.1 |
| 20260504192816 | 17 | 270 | 8.0 | 17.7 | 0.00 | 0.00 | 0.00 | 66 | 1010.0 |
| 20260504191816 | 17 | 296 | 6.4 | 16.1 | 0.00 | 0.00 | 0.00 | 66 | 1010.0 |
| 20260504191317 | 16 | 324 | 4.8 | 11.3 | 0.00 | 0.00 | 0.00 | 68 | 1010.2 |
| 20260504190817 | 16 | 300 | 4.8 | 9.7 | 0.00 | 0.00 | 0.00 | 67 | 1010.2 |
| 20260504190315 | 16 | 327 | 6.4 | 12.9 | 0.00 | 0.00 | 0.00 | 66 | 1010.2 |
| 20260504185809 | 16 | 290 | 6.4 | 12.9 | 0.00 | 0.00 | 0.00 | 66 | 1010.1 |
| 20260504185311 | 16 | 269 | 6.4 | 14.5 | 0.00 | 0.00 | 0.00 | 65 | 1010.1 |
| 20260504184812 | 16 | 281 | 4.8 | 14.5 | 0.00 | 0.00 | 0.00 | 64 | 1010.1 |
| 20260504184307 | 17 | 281 | 4.8 | 11.3 | 0.00 | 0.00 | 0.00 | 62 | 1010.1 |
| 20260504183804 | 17 | 281 | 6.4 | 12.9 | 0.00 | 0.00 | 0.00 | 61 | 1010.1 |
| 20260504183306 | 18 | 314 | 4.8 | 12.9 | 0.00 | 0.00 | 0.00 | 58 | 1010.2 |
| 20260504182808 | 18 | 46 | 1.6 | 8.0 | 0.00 | 0.00 | 0.00 | 57 | 1010.2 |
| 20260504182306 | 18 | 73 | 3.2 | 8.0 | 0.00 | 0.00 | 0.00 | 56 | 1010.2 |
| 20260504181302 | 19 | 55 | 3.2 | 8.0 | 0.00 | 0.00 | 0.00 | 55 | 1010.3 |
| 20260504180259 | 18 | 333 | 3.2 | 8.0 | 0.00 | 0.00 | 0.00 | 59 | 1010.3 |
| 20260504175756 | 18 | 318 | 3.2 | 11.3 | 0.00 | 0.00 | 0.00 | 60 | 1010.3 |
| 20260504175256 | 18 | 318 | 3.2 | 11.3 | 0.00 | 0.00 | 0.00 | 61 | 1010.3 |
| 20260504174756 | 17 | 300 | 3.2 | 9.7 | 0.00 | 0.00 | 0.00 | 63 | 1010.2 |
| 20260504174251 | 17 | 296 | 1.6 | 9.7 | 0.00 | 0.00 | 0.00 | 64 | 1010.2 |
| 20260504173750 | 17 | 296 | 0.0 | 6.4 | 0.00 | 0.00 | 0.00 | 65 | 1010.2 |
| 20260504173250 | 16 | 296 | 1.6 | 9.7 | 0.00 | 0.00 | 0.00 | 65 | 1010.2 |
| 20260504172749 | 16 | 296 | 1.6 | 9.7 | 0.00 | 0.00 | 0.00 | 65 | 1010.2 |
| 20260504172247 | 16 | 296 | 1.6 | 6.4 | 0.00 | 0.00 | 0.00 | 64 | 1010.2 |
| 20260504171747 | 16 | 296 | 3.2 | 9.7 | 0.00 | 0.00 | 0.00 | 66 | 1010.2 |
| 20260504171252 | 16 | 296 | 3.2 | 9.7 | 0.00 | 0.00 | 0.00 | 64 | 1010.2 |
| 20260504170745 | 17 | 331 | 3.2 | 8.0 | 0.00 | 0.00 | 0.00 | 66 | 1010.2 |
| 20260504170243 | 17 | 319 | 3.2 | 8.0 | 0.00 | 0.00 | 0.00 | 64 | 1010.2 |
| 20260504160223 | 15 | 124 | 0.0 | 3.2 | 0.00 | 0.00 | 0.00 | 74 | 1010.2 |
| 20260504150700 | 11 | 292 | 0.0 | 0.0 | 0.00 | 0.00 | 0.00 | 90 | 1010.0 |
| 20260504150158 | 11 | 292 | 0.0 | 0.0 | 0.00 | 0.00 | 0.00 | 91 | 1010.0 |
| 20260504141139 | 9 | 276 | 0.0 | 0.0 | 0.00 | 0.00 | 0.00 | 94 | 1009.6 |
| 20260504140640 | 9 | 276 | 0.0 | 0.0 | 0.00 | 0.00 | 0.00 | 94 | 1009.6 |
| 20260504140139 | 8 | 276 | 0.0 | 0.0 | 0.00 | 0.00 | 0.00 | 95 | 1009.5 |
| 20260504130604 | 8 | 278 | 0.0 | 0.0 | 0.00 | 0.00 | 0.00 | 93 | 1009.4 |
| 20260504110517 | 9 | 278 | 0.0 | 0.0 | 0.00 | 0.00 | 0.00 | 94 | 1009.7 |
| 20260504100454 | 8 | 278 | 0.0 | 4.8 | 0.00 | 0.00 | 0.00 | 93 | 1009.6 |